Powrót do katalogu

STARLINK-34183

AktywnyŁącznośćVLEO
NORAD 64254·PAYLOAD·🇺🇸 United States

Wystrzelony Jun 3, 2025 z Cape Canaveral Space Force Station

Loading…

Następne Przeloty (najbliższe 24 godziny)

TLE

ŚwieżeSource: CelesTrak SupGP

Epoka: Sep 14, 2026, 21:17 UTC

1 64254C 25119X   26257.88729167 -.00031397  00000+0 -11372-2 0  2576
2 64254  43.0027 318.8980 0001687 268.3083 347.9887 15.27592359    13

Śledź STARLINK-34183 w czasie rzeczywistym z AllMySat

Download on the App Store